Showing default

CENTAURI-7, 62708

Orbit data source: Space-Track

CENTAURI-7, 62708 is a payload satellite owned by Fleet Space (AU) in SSO that was launched on Tue, 14 Jan 2025 UTC via an FALCON 9 launch vehicle from the Air Force Western Test Range (AFWTR). Payload-class satellites include a variety of spacecraft equipped with specific instruments for various scientific and technological missions. These include communications satellites like Starlink; space stations such as the ISS; scientific satellites like the Hubble; Earth observation satellites from companies like Planet Labs, Umbra, and HawkEye 360; GPS; miniature CubeSats for education and research; and military/defense satellites.

Loading next visibility...
Identifier
62708, 2025-009DD
Orbit
SSO
Country
Flag of AUAU / AUS
Related business
Manufacturer
Terran Orbital
Mission
Operational Commercial Communications
Bus & Motor
CUBESAT 12U, Unknown motor
Mass
~25 kg wet, ~25 kg dry
Launch date (UTC)
2025-01-14 (9 months ago)
Launch vehicle
FALCON 9
Launch site
Air Force Western Test Range (AFWTR)
Object type
Payload
Rocket body
Debris
Shape & HBR
Box + 2 Pan, 0.7 m
Radar Cross Section
0.183 m², Medium (>0.1 m² and < 1m²)

Expand to show TLE details & history
Last TLE update: 7 hours ago

TLE from 7 hours ago
0 CENTAURI-7
1 62708U 25009DD  25290.92202651  .00007266  00000-0  66303-3 0  9996
2 62708  97.7318   9.3925 0000933  61.2313 298.9001 14.95378431 41222
Epoch: 2025-10-17T22:07Z
TLE epoch observation values (Epoch: 2025-10-17T22:07:43.090Z)
Latitude
-0.00007°
Longitude
10.80252°
Altitude
583.932 km
Speed
7.569 km/s
True Right ascension
00h 37m 34s
True Declination
0° 00' 00"
Sunlit
Object was in full shadow at epoch
Visualization orbit readout
Latitude
Unknown
Longitude
Unknown
Altitude
Unknown
Speed
Unknown
Apparent Right ascension
Unknown
Apparent Declination
Unknown
Sunlit
N/A
Visualization observer readout
Local Sidereal Time
00:18:22
Azimuth
Unknown
Elevation
Unknown
Doppler factor
Unknown
Orbital elements
Apogee altitude
578.86 km
Perigee altitude
577.562 km
Semi-major axis
6,956.348 km
Eccentricity
0.00009
Inclination
97.7318°
RAAN
9.3925°
Arg. of periapsis
61.2313°
True anomaly
298.89074°
Mean anomaly
298.9001°
Eccentric anomaly
298.89542°
Mean motion
3.74086 °/min
Orbital period
96.23 mins
BSTAR
0.00066303
Loading maneuver chart data...
Computing Atmospheric mass density...
Loading historical data...
Loading historical data...
Loading historical data...
Loading historical data...
Loading historical data...
Loading historical data...
Loading historical data...

Documentation

Showing up to 5 results
|